This is the latest recevied weather packets stored in our database for station/object K8JMX-13. If no packets are shown the sender has not sent any weather packets the latest 1 day(s).
| Time | Temp. | Humidity | Pressure | Rain* | Wind** | Luminosity | Snow |
|---|---|---|---|---|---|---|---|
| 1778014948 | 21.11° C | 54% | 1005.8 hPa | 0 mm | 3.58 m/s, 214° | 88 W/m² | - |
| 1778014646 | 21.11° C | 54% | 1005.5 hPa | 0 mm | 2.24 m/s, 175° | 107 W/m² | - |
| 1778014344 | 21.11° C | 54% | 1005.6 hPa | 0 mm | 1.79 m/s, 152° | 196 W/m² | - |
| 1778014040 | 21.11° C | 56% | 1005.9 hPa | 0 mm | 1.79 m/s, 211° | 91 W/m² | - |
| 1778013738 | 21.11° C | 55% | 1006.1 hPa | 0 mm | 1.79 m/s, 216° | 82 W/m² | - |
| 1778013435 | 21.11° C | 55% | 1006.1 hPa | 0 mm | 2.68 m/s, 228° | 46 W/m² | - |
| 1778013132 | 21.11° C | 55% | 1006.1 hPa | 0 mm | 1.34 m/s, 220° | 65 W/m² | - |
| 1778012828 | 21.11° C | 55% | 1006.1 hPa | 0 mm | 1.79 m/s, 188° | 77 W/m² | - |
| 1778012524 | 21.11° C | 55% | 1006.2 hPa | 0 mm | 0.89 m/s, 153° | 86 W/m² | - |
| 1778012220 | 21.11° C | 54% | 1006.2 hPa | 0 mm | 1.79 m/s, 248° | 118 W/m² | - |
| 1778011927 | 21.11° C | 55% | 1006.2 hPa | 0 mm | 1.34 m/s, 210° | 144 W/m² | - |
| 1778011616 | 21.11° C | 55% | 1006.4 hPa | 0 mm | 1.79 m/s, 177° | 157 W/m² | - |
| 1778011313 | 21.11° C | 55% | 1006.3 hPa | 0 mm | 1.79 m/s, 113° | 131 W/m² | - |
| 1778011008 | 21.11° C | 54% | 1006.3 hPa | 0 mm | 4.02 m/s, 192° | 157 W/m² | - |
| 1778010706 | 21.11° C | 55% | 1006.4 hPa | 0 mm | 2.24 m/s, 166° | 111 W/m² | - |
| 1778010403 | 21.11° C | 55% | 1006.4 hPa | 0 mm | 1.79 m/s, 218° | 146 W/m² | - |
| 1778010099 | 21.11° C | 55% | 1006.5 hPa | 0 mm | 3.58 m/s, 227° | 140 W/m² | - |
| 1778009796 | 21.11° C | 56% | 1006.6 hPa | 0 mm | 0.89 m/s, 185° | 144 W/m² | - |
| 1778009493 | 21.11° C | 55% | 1006.7 hPa | 0 mm | 1.79 m/s, 223° | 152 W/m² | - |
| 1778009192 | 21.11° C | 55% | 1006.7 hPa | 0 mm | 1.79 m/s, 216° | 175 W/m² | - |
| 1778008889 | 21.11° C | 54% | 1006.8 hPa | 0 mm | 3.13 m/s, 221° | 188 W/m² | - |
| 1778008588 | 21.11° C | 55% | 1006.9 hPa | 0 mm | 2.24 m/s, 194° | 188 W/m² | - |
| 1778008285 | 21.11° C | 54% | 1007.1 hPa | 0 mm | 1.34 m/s, 230° | 187 W/m² | - |
| 1778007981 | 21.11° C | 55% | 1006.9 hPa | 0 mm | 2.68 m/s, 203° | 198 W/m² | - |
| 1778007676 | 21.11° C | 55% | 1006.8 hPa | 0 mm | 0.89 m/s, 208° | 215 W/m² | - |
* Rain latest hour (hover to see other rain measurements)
** Current wind speed in m/s (hover to see current wind gust speed)